Newport News, VA

1:22 AM EDT on September 28, 2016 (GMT -0400)
Newport News-Williamsburg International

Weather History for KPHF - September, 2013

Change the Weather History Date:

Thursday, September 12, 2013

  Actual Average Record
Temperature  
Mean Temperature 84 °F -  
Max Temperature 93 °F 81 °F 93 °F (1957)
Min Temperature 75 °F 64 °F 52 °F (2012)
Cooling Degree Days 19    
Growing Degree Days 34 (Base 50)    
Moisture  
Dew Point 67 °F    
Average Humidity 59    
Maximum Humidity 82    
Minimum Humidity 41    
Precipitation  
Precipitation 0.09 in - - ()
Sea Level Pressure  
Sea Level Pressure 29.91 in    
Wind  
Wind Speed 9 mph (SSW)    
Max Wind Speed 14 mph    
Max Gust Speed 18 mph    
Visibility 10 miles    
Events      
Averages and records for this station are not official NWS values.
T = Trace of Precipitation, MM = Missing Value Source: NWS Daily Summary

Daily Weather History Graph

Daily Weather History Graph

Search for Another Location

Airport or City:

Trip Planner

Search our weather history database for the weather conditions in past years. The results will help you decide how hot, cold, wet, or windy it might be!

Date:

Astronomy

Sep. 12, 2013 Rise Set
Actual Time 6:45 AM EDT 7:17 PM EDT
Civil Twilight 6:19 AM EDT 7:43 PM EDT
Nautical Twilight 5:48 AM EDT 8:14 PM EDT
Astronomical Twilight 5:17 AM EDT 8:46 PM EDT
Moon 2:02 PM EDT (9/12) No Moon Set
Length of Visible Light 13h 24m
Length of Day
12h 32m
Waxing Crescent, 50% of the Moon is Illuminated
Sep 12
Waxing Crescent
Sep 12
First Quarter
Sep 19
Full
Sep 26
Last Quarter
Oct 4
New

Hourly Weather History & Observations

Time (EDT) Temp. Heat Index Dew Point Humidity Pressure Visibility Wind Dir Wind Speed Gust Speed Precip Events Conditions
12:54 AM 79.0 °F - 66.9 °F 66% 30.06 in 10.0 mi SSW 8.1 mph - N/A   Clear
1:54 AM 78.1 °F - 66.9 °F 68% 30.04 in 10.0 mi SSW 9.2 mph - N/A   Clear
2:54 AM 78.1 °F - 66.9 °F 68% 30.02 in 10.0 mi SSW 9.2 mph - N/A   Clear
3:54 AM 75.9 °F - 66.0 °F 71% 30.02 in 10.0 mi SW 6.9 mph - N/A   Clear
4:54 AM 75.9 °F - 66.0 °F 71% 30.01 in 10.0 mi SW 8.1 mph - N/A   Partly Cloudy
5:54 AM 75.9 °F - 64.9 °F 69% 30.01 in 10.0 mi SSW 4.6 mph - N/A   Clear
6:54 AM 75.9 °F - 64.9 °F 69% 30.01 in 10.0 mi SSW 5.8 mph - N/A   Clear
7:54 AM 78.1 °F - 64.9 °F 64% 30.01 in 10.0 mi SSW 9.2 mph - N/A   Clear
8:54 AM 80.1 °F 82.1 °F 66.0 °F 62% 29.98 in 10.0 mi SW 9.2 mph - N/A   Clear
9:54 AM 82.9 °F 85.0 °F 66.0 °F 56% 29.98 in 10.0 mi WSW 11.5 mph - N/A   Clear
10:54 AM 86.0 °F 88.8 °F 66.9 °F 53% 29.96 in 10.0 mi SSW 10.4 mph - N/A   Clear
11:54 AM 88.0 °F 90.3 °F 66.0 °F 48% 29.95 in 10.0 mi SSW 9.2 mph - N/A   Clear
12:54 PM 90.0 °F 92.4 °F 66.0 °F 45% 29.92 in 10.0 mi SSW 11.5 mph - N/A   Clear
1:54 PM 91.9 °F 94.5 °F 66.0 °F 42% 29.90 in 10.0 mi SSW 13.8 mph - N/A   Clear
2:54 PM 93.0 °F 95.9 °F 66.0 °F 41% 29.86 in 10.0 mi SSW 13.8 mph - N/A   Clear
3:54 PM 93.0 °F 96.4 °F 66.9 °F 42% 29.82 in 10.0 mi SSW 12.7 mph - N/A   Clear
4:54 PM 91.9 °F 95.4 °F 66.9 °F 44% 29.79 in 10.0 mi SSW 13.8 mph - N/A   Partly Cloudy
5:54 PM 91.0 °F 95.2 °F 68.0 °F 47% 29.78 in 10.0 mi SSW 9.2 mph 18.4 mph N/A   Clear
6:54 PM 88.0 °F 91.4 °F 68.0 °F 51% 29.78 in 10.0 mi South 11.5 mph - N/A   Scattered Clouds
7:54 PM 86.0 °F 89.4 °F 68.0 °F 55% 29.78 in 10.0 mi SSW 11.5 mph - N/A   Scattered Clouds
8:54 PM 84.9 °F 88.8 °F 69.1 °F 59% 29.78 in 10.0 mi SSW 11.5 mph - N/A   Scattered Clouds
9:54 PM 80.1 °F 81.2 °F 62.1 °F 54% 29.81 in 10.0 mi NNW 11.5 mph - N/A   Overcast
10:54 PM 75.9 °F - 69.1 °F 79% 29.79 in 10.0 mi South 4.6 mph - 0.09 in   Partly Cloudy
11:54 PM 75.0 °F - 69.1 °F 82% 29.78 in 8.0 mi NE 9.2 mph 17.3 mph 0.00 in   Mostly Cloudy